Wind_Speed
14 16 20 23 24 23 24 21 20 16 15 15 16 18 21 23 22 23 24 23 22 21 19 16 19 17 14 14 13 13 12 13 13 12 12 13 13 14 14 14 14 15 15
14 15 20 22 23 26 24 22 24 23 17 16 15 19 19 22 21 23 22 22 21 18 16 16 16 12 13 13 11 12 12 14 13 13 13 14 14 15 15 14 14 13 14
14 17 19 21 22 24 24 23 23 23 21 21 18 15 19 21 20 20 21 20 18 16 14 13 12 11 12 10 11 11 13 14 14 14 15 16 14 15 14 14 13 12 12
16 18 18 20 21 22 21 20 21 20 20 21 21 19 18 20 19 18 19 17 16 15 13 11 11 10 9 10 10 11 12 13 13 13 16 13 14 13 14 13 12 12 11
18 17 16 17 19 19 19 18 17 18 18 18 19 17 17 16 16 15 16 15 14 12 11 9 9 7 7 9 10 11 12 12 12 11 13 10 12 12 12 12 12 11 10
17 16 15 17 17 16 17 16 15 16 16 15 16 16 15 14 14 14 13 11 10 11 10 8 7 7 6 8 10 11 11 12 12 13 15 10 12 11 11 11 11 10 10
21 18 16 17 17 13 14 15 14 12 13 15 15 15 14 13 13 11 11 10 9 8 8 9 8 8 8 8 9 10 11 11 9 9 12 9 8 8 9 9 10 9 9
18 20 18 16 15 13 13 14 14 13 12 12 14 15 13 11 10 10 9 9 8 7 7 6 8 8 9 9 9 10 11 10 14 9 9 9 7 6 7 7 7 7 7
18 17 16 16 16 17 16 15 13 13 12 12 11 12 13 12 9 9 9 9 7 7 7 8 7 8 9 10 10 10 11 9 10 8 7 9 6 5 5 5 5 5 5
18 17 17 16 16 16 17 17 14 12 12 10 10 12 11 11 7 8 9 9 9 7 6 8 8 9 9 11 11 10 10 8 8 7 7 7 6 5 3 3 3 4 3
18 15 17 18 17 17 17 16 15 12 12 12 11 9 9 9 7 7 8 9 10 8 6 8 9 10 10 11 10 10 10 10 5 3 6 5 4 4 3 3 3 4 3
13 16 16 17 18 18 17 15 14 12 12 12 12 8 8 8 7 8 7 8 9 8 8 8 10 10 12 13 10 9 11 9 8 10 9 5 4 3 4 4 4 4 4
5 14 17 17 17 18 19 17 15 15 14 13 17 15 12 11 9 8 8 6 7 8 10 10 11 11 11 10 8 12 10 10 7 5 10 5 4 4 5 5 5 5 4
5 10 15 18 18 18 19 16 16 14 16 16 15 13 11 10 8 5 5 7 7 9 9 9 11 12 13 18 20 10 10 9 6 7 8 7 5 4 5 6 6 6 6
6 7 12 17 18 18 18 16 15 16 14 19 17 12 11 15 12 8 13 11 10 11 10 10 10 12 13 13 13 12 9 10 14 15 10 9 7 6 6 6 7 7 7
5 6 9 12 17 19 18 17 16 15 17 18 20 22 19 17 16 16 16 14 13 12 12 12 13 12 13 14 13 12 12 11 10 4 7 7 11 9 8 8 8 8 9
8 7 7 10 14 20 20 19 17 16 16 17 19 19 22 21 19 16 17 16 15 14 14 14 15 15 15 14 14 14 11 11 11 12 13 13 10 10 10 10 10 10 10
13 10 8 8 11 17 21 21 19 19 18 17 16 19 19 20 19 17 18 15 15 16 16 18 17 16 15 16 16 15 15 13 14 14 11 13 7 7 10 14 12 13 13
18 16 13 10 10 14 19 23 23 22 20 19 18 18 17 18 18 18 16 12 12 12 15 16 15 16 15 17 16 16 17 16 16 15 16 14 14 14 10 14 18 16 14
22 21 19 17 14 14 18 22 26 27 26 24 22 21 19 19 19 19 16 16 13 13 11 12 14 14 15 15 16 17 19 18 19 19 17 15 16 15 16 16 20 16 18
22 24 24 24 19 19 19 20 24 27 28 27 26 25 24 22 22 21 20 19 15 15 13 11 12 14 15 16 17 19 18 18 19 19 17 15 16 15 12 21 19 19 19
14 21 26 28 26 24 22 19 19 21 24 28 29 30 26 25 25 24 23 22 19 18 16 15 14 14 14 16 16 18 16 16 18 19 19 19 18 16 21 20 19 17 18
11 15 19 26 31 29 26 23 24 25 25 26 31 32 32 30 28 27 25 24 22 21 20 20 17 22 17 16 15 16 13 11 11 15 17 14 14 16 17 12 21 23 20
16 13 12 21 29 31 32 31 29 28 25 22 21 25 30 31 31 29 27 26 26 23 23 21 22 21 21 21 21 19 19 19 18 18 21 19 14 15 18 21 22 24 26
15 16 14 14 20 27 31 35 35 33 30 27 26 25 25 28 31 33 31 29 28 27 25 25 24 24 25 25 24 22 22 22 22 20 19 19 22 26 24 26 17 23 26
14 12 14 14 16 22 31 33 38 40 34 32 31 30 25 26 28 32 33 32 30 30 28 26 26 27 27 28 27 26 24 26 23 23 23 23 24 23 22 23 27 28 25
Wind_Direction
143 125 120 119 121 123 138 137 142 149 130 119 126 121 124 124 126 131 133 133 134 134 132 125 123 118 114 115 107 107 113 113 113 112 107 104 105 109 107 108 109 108 106
144 135 125 120 123 124 127 128 131 137 140 133 127 125 130 125 129 135 136 137 136 133 128 129 124 117 116 116 108 107 111 110 109 108 104 99 101 103 104 103 101 104 106
144 142 130 125 129 132 132 131 134 139 140 140 135 130 128 126 131 139 139 140 141 134 133 134 130 122 125 119 114 110 113 114 114 111 111 96 97 99 101 102 102 102 102
145 145 136 132 134 138 137 135 136 137 137 137 138 137 129 128 136 143 144 147 147 144 140 137 132 129 128 126 119 119 118 117 114 116 102 101 104 104 103 104 103 100 101
143 147 143 142 140 138 136 133 135 138 138 139 139 138 135 130 132 142 146 154 159 159 153 151 139 142 132 134 131 125 125 123 118 121 89 111 110 110 109 106 101 102 101
145 151 147 145 143 140 140 140 140 137 139 140 138 136 138 144 143 143 143 147 156 163 159 163 160 159 151 146 142 136 135 131 135 112 130 129 115 116 114 114 111 109 106
148 148 152 150 149 141 146 144 143 141 145 146 146 146 150 149 148 154 154 156 166 176 163 170 167 168 162 160 156 143 141 133 135 116 116 124 119 123 121 120 119 119 110
168 160 160 161 163 162 155 150 149 150 152 156 159 160 158 157 163 169 169 174 179 182 169 170 166 174 171 169 162 150 142 141 120 135 132 125 130 132 131 129 126 123 118
181 169 169 168 163 160 160 154 151 147 148 154 165 167 166 163 174 182 189 186 174 187 183 168 168 176 173 172 166 159 149 145 140 142 142 142 141 142 140 135 135 128 125
188 183 179 184 180 168 168 165 163 156 156 159 168 178 175 167 184 188 191 185 180 189 172 174 175 180 169 165 168 167 149 141 135 160 176 144 154 166 164 158 160 152 146
200 201 193 187 191 188 183 182 182 182 177 177 181 181 181 182 189 196 183 181 184 190 174 182 185 182 174 168 166 168 162 134 112 79 227 174 171 193 190 197 184 174 167
230 210 204 201 197 200 199 197 197 194 195 192 187 202 210 199 212 201 195 188 186 189 197 196 195 188 182 179 176 178 169 155 174 171 232 199 201 210 220 216 213 202 199
252 232 212 207 209 203 211 200 202 199 200 204 215 239 210 192 215 228 224 205 202 205 210 205 203 199 191 166 226 178 148 159 190 170 232 208 218 221 233 234 226 221 227
296 240 227 215 212 211 217 204 207 208 203 199 205 208 205 201 213 196 227 235 216 218 213 222 215 207 205 172 206 200 201 150 175 220 259 220 228 235 242 242 237 231 224
285 261 243 223 217 215 220 205 213 189 226 206 202 206 204 212 215 210 226 233 235 224 214 221 228 215 217 220 221 194 207 205 189 176 271 227 235 240 244 244 238 235 231
250 277 245 233 224 220 222 225 210 214 212 206 209 199 215 225 226 221 225 228 232 231 220 213 228 221 225 223 221 221 212 208 228 176 223 256 261 250 256 250 249 247 247
228 241 263 237 227 225 226 229 221 218 218 214 221 206 208 217 218 218 223 222 228 228 226 235 225 228 229 230 230 230 229 228 221 225 240 239 264 261 257 254 253 251 252
229 236 245 242 239 227 227 230 230 229 219 222 217 228 206 211 213 213 225 222 224 224 225 230 230 229 228 230 230 235 235 237 234 236 242 238 248 251 256 251 254 251 255
222 227 235 237 231 229 228 230 230 233 233 226 223 225 217 218 216 217 226 229 231 225 225 230 233 230 231 232 233 235 240 241 246 242 243 241 223 238 240 277 268 250 256
223 222 229 231 226 222 225 231 233 235 232 231 228 229 230 224 221 216 219 224 226 235 235 229 232 234 237 233 234 243 241 245 248 250 249 248 244 250 247 251 264 250 256
255 238 230 233 229 229 226 228 235 239 240 238 238 230 232 228 227 224 228 230 229 236 235 239 241 236 231 238 237 236 245 249 253 258 261 254 262 264 275 268 268 275 280
291 262 250 243 238 232 235 234 236 240 246 241 243 244 240 233 234 232 230 238 234 238 236 240 236 244 239 239 240 247 253 255 257 259 260 259 253 247 254 273 277 267 272
320 292 266 245 247 241 237 235 234 235 233 242 243 244 241 240 236 237 236 237 240 238 239 241 238 254 256 245 239 242 248 262 249 270 280 258 261 255 259 260 277 292 281
305 309 295 261 239 238 235 236 237 243 247 247 246 251 247 245 245 242 241 241 242 239 244 244 247 243 246 252 253 244 242 235 236 229 257 265 258 279 276 281 278 274 277
317 303 299 294 255 243 237 238 241 238 241 243 240 239 243 246 242 245 242 241 242 244 242 245 243 245 251 249 249 250 245 250 254 257 255 264 271 270 284 281 261 279 283
309 303 292 278 272 250 242 237 240 246 239 240 241 240 238 245 242 240 241 240 240 242 243 244 245 244 244 250 250 248 251 256 257 258 258 257 265 267 283 281 294 281 272
Height
3157 3159 3161 3162 3164 3165 3169 3171 3173 3175 3178 3179 3179 3181 3182 3183 3186 3188 3191 3193 3195 3196 3198 3200 3200 3202 3204 3205 3205 3206 3207 3207 3209 3210 3211 3211 3211 3212 3213 3213 3214 3214 3214
3158 3161 3162 3163 3166 3168 3171 3174 3175 3177 3179 3182 3183 3184 3186 3186 3189 3191 3194 3196 3198 3200 3201 3202 3204 3205 3206 3208 3208 3209 3210 3210 3211 3213 3213 3213 3214 3214 3215 3216 3216 3217 3217
3161 3163 3164 3166 3169 3171 3174 3176 3178 3181 3183 3185 3187 3188 3189 3189 3192 3195 3197 3199 3201 3202 3204 3205 3206 3208 3209 3210 3210 3212 3212 3212 3213 3215 3215 3215 3216 3217 3217 3218 3219 3220 3220
3163 3166 3168 3169 3172 3174 3176 3179 3181 3184 3186 3187 3189 3191 3192 3192 3195 3198 3199 3202 3203 3204 3206 3208 3208 3210 3211 3212 3213 3213 3214 3215 3215 3216 3215 3218 3219 3219 3220 3220 3221 3222 3223
3165 3168 3171 3173 3175 3177 3179 3182 3184 3186 3188 3190 3191 3193 3194 3195 3198 3201 3201 3203 3205 3207 3208 3210 3210 3212 3213 3214 3214 3215 3216 3216 3217 3218 3221 3221 3221 3222 3222 3222 3223 3224 3224
3168 3170 3172 3175 3177 3180 3182 3184 3186 3188 3190 3191 3193 3194 3196 3199 3200 3202 3203 3205 3207 3209 3209 3211 3212 3213 3214 3215 3216 3216 3218 3218 3218 3221 3222 3223 3224 3224 3224 3225 3225 3226 3226
3173 3172 3174 3177 3179 3181 3183 3185 3187 3189 3191 3193 3194 3196 3198 3200 3201 3203 3204 3205 3207 3209 3210 3212 3213 3214 3215 3216 3218 3218 3219 3219 3220 3222 3224 3225 3226 3227 3227 3227 3227 3228 3228
3175 3174 3176 3178 3180 3182 3184 3187 3188 3190 3193 3195 3196 3197 3199 3201 3203 3204 3206 3207 3208 3210 3211 3212 3213 3214 3215 3217 3219 3219 3221 3221 3221 3224 3225 3226 3228 3229 3229 3229 3228 3229 3230
3175 3174 3177 3178 3180 3182 3184 3187 3189 3191 3193 3195 3197 3198 3200 3201 3204 3205 3206 3208 3209 3210 3211 3212 3213 3215 3216 3217 3219 3221 3222 3223 3223 3225 3227 3227 3229 3230 3230 3230 3230 3230 3231
3174 3175 3176 3179 3181 3182 3184 3187 3189 3191 3193 3196 3198 3199 3201 3202 3203 3205 3206 3207 3209 3211 3211 3212 3213 3215 3216 3217 3220 3222 3223 3224 3226 3228 3227 3228 3229 3230 3231 3231 3232 3232 3232
3173 3174 3177 3178 3181 3183 3184 3186 3189 3192 3193 3195 3198 3200 3200 3202 3203 3205 3206 3207 3209 3210 3211 3212 3214 3215 3216 3218 3220 3222 3224 3226 3231 3231 3228 3229 3230 3231 3231 3232 3232 3233 3233
3174 3174 3176 3178 3180 3183 3184 3187 3189 3191 3194 3195 3197 3200 3201 3202 3203 3205 3206 3207 3208 3208 3211 3213 3214 3215 3216 3219 3221 3223 3224 3224 3232 3231 3231 3230 3231 3231 3231 3232 3232 3233 3233
3174 3175 3176 3178 3179 3181 3183 3186 3188 3189 3192 3194 3196 3199 3201 3203 3203 3204 3205 3206 3207 3208 3210 3212 3213 3215 3216 3219 3221 3223 3225 3227 3231 3231 3230 3230 3231 3231 3231 3232 3232 3233 3234
3174 3175 3176 3177 3178 3181 3182 3185 3186 3188 3190 3193 3194 3198 3200 3201 3202 3204 3203 3205 3206 3208 3210 3212 3213 3214 3216 3218 3221 3222 3224 3227 3230 3231 3230 3230 3230 3231 3231 3232 3232 3232 3233
3173 3174 3175 3176 3178 3180 3182 3183 3185 3188 3190 3190 3193 3195 3197 3199 3200 3202 3203 3204 3205 3207 3209 3210 3211 3213 3215 3217 3218 3219 3221 3225 3227 3229 3229 3229 3229 3230 3231 3231 3231 3232 3232
3172 3174 3174 3175 3177 3179 3180 3182 3184 3186 3190 3191 3191 3194 3195 3197 3199 3201 3202 3204 3204 3205 3206 3209 3210 3211 3214 3215 3217 3219 3220 3222 3224 3225 3227 3226 3228 3229 3230 3230 3231 3231 3232
3171 3172 3174 3174 3175 3178 3179 3181 3182 3184 3186 3187 3190 3192 3193 3194 3197 3199 3200 3201 3202 3203 3203 3205 3209 3210 3212 3214 3216 3218 3218 3220 3222 3224 3226 3227 3226 3227 3228 3229 3230 3231 3231
3168 3170 3171 3173 3174 3175 3177 3179 3181 3182 3184 3186 3187 3187 3190 3192 3194 3196 3196 3199 3201 3202 3203 3204 3206 3209 3210 3212 3214 3217 3218 3219 3220 3222 3223 3224 3225 3227 3224 3227 3228 3229 3230
3164 3166 3168 3170 3171 3173 3175 3176 3178 3179 3181 3182 3185 3186 3187 3189 3191 3193 3195 3197 3199 3201 3202 3203 3205 3207 3209 3211 3213 3215 3216 3217 3219 3220 3220 3221 3223 3223 3222 3224 3226 3226 3227
3161 3162 3164 3166 3168 3169 3171 3173 3175 3176 3177 3179 3181 3183 3184 3187 3189 3191 3193 3195 3197 3198 3200 3202 3204 3206 3208 3209 3211 3212 3214 3215 3216 3217 3218 3219 3219 3220 3221 3222 3221 3223 3224
3161 3160 3160 3162 3165 3166 3167 3168 3170 3173 3175 3177 3178 3179 3181 3183 3185 3188 3190 3191 3194 3196 3197 3200 3201 3202 3204 3207 3209 3210 3212 3212 3214 3215 3215 3217 3217 3218 3219 3219 3219 3220 3220
3157 3157 3159 3159 3161 3162 3164 3166 3168 3169 3171 3174 3175 3175 3177 3180 3182 3185 3187 3188 3191 3192 3194 3197 3199 3201 3202 3203 3206 3207 3209 3210 3210 3211 3213 3213 3214 3216 3217 3216 3216 3216 3217
3156 3153 3153 3154 3156 3159 3161 3162 3163 3164 3165 3167 3169 3171 3173 3175 3177 3180 3182 3184 3186 3189 3190 3192 3195 3196 3199 3200 3202 3204 3206 3208 3212 3209 3208 3209 3209 3210 3212 3213 3214 3213 3213
3152 3150 3149 3148 3149 3151 3154 3156 3157 3159 3161 3163 3165 3166 3168 3172 3173 3175 3177 3180 3182 3184 3186 3188 3191 3192 3194 3196 3197 3200 3201 3203 3206 3208 3206 3205 3176 3204 3208 3209 3209 3210 3209
3149 3147 3146 3145 3145 3147 3148 3150 3151 3153 3156 3158 3159 3160 3162 3164 3168 3170 3172 3174 3176 3178 3181 3183 3185 3188 3190 3191 3193 3195 3197 3198 3199 3201 3203 3203 3201 3203 3204 3199 3201 3202 3202
3147 3145 3143 3142 3142 3142 3142 3144 3145 3147 3151 3152 3153 3154 3156 3158 3161 3163 3165 3167 3170 3173 3175 3177 3180 3181 3184 3186 3187 3189 3191 3193 3195 3196 3197 3199 3199 3200 3201 3198 3195 3196 3198